Location: Bratislava
(48.1500°N, 17.1170°E)
Time: 02:11:29
(UTC+02:00)

ISS - Pass Details

Date: 24 March 2019
Orbit: 408 x 410 km, 51.6° (Epoch: 21 April)

Event Time Altitude Azimuth Distance (km) Brightness Sun altitude
Rises 21:04:09 0° 270° (W) 2,334 0.8 -27.7°
Reaches altitude 10° 21:06:17 10° 277° (W) 1,474 -0.3 -27.9°
Enters shadow 21:07:09 17° 283° (WNW) 1,143 -0.9 -28.1°
